User: anonymous   Login
Location: Unspecified
(0.0000°N, 0.0000°E)
Time: 20:48:37
(UTC+00:00)
Language:

GAOFEN 1-02 - Orbit

View from above orbital plane
View from above orbital plane
View from above satellite
View from above satellite

Ground track
Ground track

The orbit is defined by the following mean orbital elements,

1 43259U          26145.59533207 +.00000000 +00000-0 +11973-3 0 00002
2 43259  98.0534 208.1841 0004661  85.1235 275.0506 14.76443246    05
Epoch (UTC): 25 May 2026 14:17:16
Eccentricity: 0.0004661
inclination: 98.0534°
perigee height: 637 km
apogee height: 644 km
right ascension of ascending node: 208.1841°
argument of perigee: 85.1235°
revolutions per day: 14.76443246
mean anomaly at epoch: 275.0506°

The dashed part of the orbit path shows where the satellite is in the earth's shadow,  

DLR